Time,TemperatureF,DewpointF,PressureIn,WindDirection,WindDirectionDegrees,WindSpeedMPH,WindSpeedGustMPH,Humidity,HourlyPrecipIn,Conditions,Clouds,dailyrainin,SolarRadiationWatts/m^2,SoftwareType,DateUTC
2014-02-03 00:05:00,22.5,17.0,30.23,NNW,345,6.0,-999.0,80,-99.99,,,0.02,0,weatherlink.com 1.10,2014-02-03 05:05:00,
2014-02-03 00:20:00,22.1,17.0,30.22,North,10,4.0,-999.0,79,-99.99,,,0.02,0,weatherlink.com 1.10,2014-02-03 05:20:00,
2014-02-03 00:36:00,21.8,16.0,30.23,North,5,5.0,-999.0,78,-99.99,,,0.02,0,weatherlink.com 1.10,2014-02-03 05:36:00,
2014-02-03 00:51:00,21.9,16.0,30.22,NNE,30,2.0,-999.0,77,-99.99,,,0.02,0,weatherlink.com 1.10,2014-02-03 05:51:00,
2014-02-03 01:06:00,21.8,16.0,30.23,NNE,15,6.0,-999.0,78,-99.99,,,0.02,0,weatherlink.com 1.10,2014-02-03 06:06:00,
2014-02-03 01:21:00,21.7,16.0,30.22,North,355,2.0,-999.0,79,-99.99,,,0.02,0,weatherlink.com 1.10,2014-02-03 06:21:00,
2014-02-03 01:36:00,21.3,16.0,30.23,North,355,2.0,-999.0,79,-99.99,,,0.02,0,weatherlink.com 1.10,2014-02-03 06:36:00,
2014-02-03 01:51:00,21.3,16.0,30.23,North,355,4.0,-999.0,79,-99.99,,,0.02,0,weatherlink.com 1.10,2014-02-03 06:51:00,
2014-02-03 02:06:00,21.3,16.0,30.23,North,355,0.0,-999.0,79,-99.99,,,0.02,0,weatherlink.com 1.10,2014-02-03 07:06:00,
2014-02-03 02:21:00,21.3,16.0,30.23,North,355,2.0,-999.0,79,-99.99,,,0.02,0,weatherlink.com 1.10,2014-02-03 07:21:00,
2014-02-03 02:36:00,21.2,16.0,30.23,North,355,0.0,-999.0,79,-99.99,,,0.02,0,weatherlink.com 1.10,2014-02-03 07:36:00,
2014-02-03 02:51:00,21.3,15.0,30.23,North,355,0.0,-999.0,78,-99.99,,,0.02,0,weatherlink.com 1.10,2014-02-03 07:51:00,
2014-02-03 03:06:00,21.1,15.0,30.23,North,355,4.0,-999.0,78,-99.99,,,0.02,0,weatherlink.com 1.10,2014-02-03 08:06:00,
2014-02-03 03:21:00,21.2,15.0,30.23,North,355,2.0,-999.0,78,-99.99,,,0.02,0,weatherlink.com 1.10,2014-02-03 08:21:00,
2014-02-03 03:36:00,21.1,16.0,30.22,North,355,0.0,-999.0,80,-99.99,,,0.02,0,weatherlink.com 1.10,2014-02-03 08:36:00,
2014-02-03 03:52:00,21.1,16.0,30.24,North,355,1.0,-999.0,80,-99.99,,,0.02,0,weatherlink.com 1.10,2014-02-03 08:52:00,
2014-02-03 04:07:00,21.1,16.0,30.24,North,355,1.0,-999.0,80,-99.99,,,0.02,0,weatherlink.com 1.10,2014-02-03 09:07:00,
2014-02-03 04:22:00,20.9,16.0,30.22,North,355,0.0,-999.0,80,-99.99,,,0.02,0,weatherlink.com 1.10,2014-02-03 09:22:00,
2014-02-03 04:37:00,21.0,16.0,30.20,North,5,6.0,-999.0,80,-99.99,,,0.02,0,weatherlink.com 1.10,2014-02-03 09:37:00,
2014-02-03 04:52:00,20.9,16.0,30.21,North,5,1.0,-999.0,81,-99.99,,,0.02,0,weatherlink.com 1.10,2014-02-03 09:52:00,
2014-02-03 05:07:00,21.1,16.0,30.21,ENE,67,6.0,-999.0,81,-99.99,,,0.02,0,weatherlink.com 1.10,2014-02-03 10:07:00,
2014-02-03 05:22:00,21.1,16.0,30.23,ENE,68,0.0,-999.0,80,-99.99,,,0.02,0,weatherlink.com 1.10,2014-02-03 10:22:00,
2014-02-03 05:37:00,21.2,16.0,30.22,ENE,68,5.0,-999.0,80,-99.99,,,0.02,0,weatherlink.com 1.10,2014-02-03 10:37:00,
2014-02-03 05:52:00,21.4,16.0,30.22,ENE,65,1.0,-999.0,81,-99.99,,,0.02,0,weatherlink.com 1.10,2014-02-03 10:52:00,
2014-02-03 06:07:00,21.5,17.0,30.21,ENE,64,2.0,-999.0,81,-99.99,,,0.02,0,weatherlink.com 1.10,2014-02-03 11:07:00,
2014-02-03 06:22:00,21.6,17.0,30.20,ENE,64,2.0,-999.0,81,-99.99,,,0.02,0,weatherlink.com 1.10,2014-02-03 11:22:00,
2014-02-03 06:37:00,21.6,17.0,30.22,ENE,61,2.0,-999.0,82,-99.99,,,0.02,0,weatherlink.com 1.10,2014-02-03 11:37:00,
2014-02-03 06:52:00,21.5,17.0,30.22,ENE,59,0.0,-999.0,83,-99.99,,,0.02,0,weatherlink.com 1.10,2014-02-03 11:52:00,
2014-02-03 07:08:00,21.3,17.0,30.23,NE,46,3.0,-999.0,84,-99.99,,,0.02,0,weatherlink.com 1.10,2014-02-03 12:08:00,
2014-02-03 07:23:00,21.1,17.0,30.22,NE,36,4.0,-999.0,84,-99.99,,,0.02,0,weatherlink.com 1.10,2014-02-03 12:23:00,
2014-02-03 07:38:00,21.2,17.0,30.23,NNE,31,0.0,-999.0,84,-99.99,,,0.02,0,weatherlink.com 1.10,2014-02-03 12:38:00,
2014-02-03 07:53:00,21.4,17.0,30.24,NNE,28,4.0,-999.0,84,-99.99,,,0.02,5,weatherlink.com 1.10,2014-02-03 12:53:00,
2014-02-03 08:08:00,21.6,18.0,30.25,NNE,28,1.0,-999.0,85,-99.99,,,0.02,7,weatherlink.com 1.10,2014-02-03 13:08:00,
2014-02-03 08:23:00,21.6,18.0,30.25,NNE,27,1.0,-999.0,86,-99.99,,,0.02,11,weatherlink.com 1.10,2014-02-03 13:23:00,
2014-02-03 08:38:00,21.8,18.0,30.26,NNE,26,4.0,-999.0,86,-99.99,,,0.02,28,weatherlink.com 1.10,2014-02-03 13:38:00,
2014-02-03 08:53:00,21.8,18.0,30.27,NNE,26,4.0,-999.0,86,-99.99,,,0.00,14,weatherlink.com 1.10,2014-02-03 13:53:00,
2014-02-03 09:08:00,21.8,19.0,30.27,NNE,26,1.0,-999.0,87,-99.99,,,0.00,19,weatherlink.com 1.10,2014-02-03 14:08:00,
2014-02-03 09:23:00,21.6,18.0,30.27,NNE,26,2.0,-999.0,87,-99.99,,,0.00,67,weatherlink.com 1.10,2014-02-03 14:23:00,
2014-02-03 09:38:00,21.8,19.0,30.28,NNE,24,3.0,-999.0,88,-99.99,,,0.00,79,weatherlink.com 1.10,2014-02-03 14:38:00,
2014-02-03 09:54:00,22.0,19.0,30.28,NNE,19,4.0,-999.0,88,-99.99,,,0.00,132,weatherlink.com 1.10,2014-02-03 14:54:00,
2014-02-03 10:09:00,22.2,19.0,30.29,NNE,20,1.0,-999.0,88,-99.99,,,0.00,84,weatherlink.com 1.10,2014-02-03 15:09:00,
2014-02-03 10:24:00,22.4,19.0,30.29,NNE,20,2.0,-999.0,88,-99.99,,,0.00,241,weatherlink.com 1.10,2014-02-03 15:24:00,
2014-02-03 10:39:00,22.5,19.0,30.29,NE,55,9.0,-999.0,87,-99.99,,,0.00,193,weatherlink.com 1.10,2014-02-03 15:39:00,
2014-02-03 10:54:00,22.5,19.0,30.29,NNE,28,2.0,-999.0,86,-99.99,,,0.00,176,weatherlink.com 1.10,2014-02-03 15:54:00,
2014-02-03 11:09:00,22.8,19.0,30.31,ENE,66,4.0,-999.0,86,-99.99,,,0.00,128,weatherlink.com 1.10,2014-02-03 16:09:00,
2014-02-03 11:24:00,22.7,19.0,30.30,NE,35,5.0,-999.0,85,-99.99,,,0.00,121,weatherlink.com 1.10,2014-02-03 16:24:00,
2014-02-03 11:39:00,22.7,19.0,30.30,NNE,25,2.0,-999.0,86,-99.99,,,0.00,111,weatherlink.com 1.10,2014-02-03 16:39:00,
2014-02-03 11:54:00,22.7,19.0,30.29,NNE,26,0.0,-999.0,85,-99.99,,,0.00,171,weatherlink.com 1.10,2014-02-03 16:54:00,
2014-02-03 12:09:00,23.0,19.0,30.29,NNE,17,5.0,-999.0,86,-99.99,,,0.00,200,weatherlink.com 1.10,2014-02-03 17:09:00,
2014-02-03 12:24:00,23.4,20.0,30.29,NNE,25,2.0,-999.0,86,-99.99,,,0.00,216,weatherlink.com 1.10,2014-02-03 17:24:00,
2014-02-03 12:40:00,23.7,20.0,30.29,NNE,30,0.0,-999.0,86,-99.99,,,0.00,311,weatherlink.com 1.10,2014-02-03 17:40:00,
2014-02-03 12:55:00,23.4,20.0,30.29,North,5,4.0,-999.0,85,-99.99,,,0.00,172,weatherlink.com 1.10,2014-02-03 17:55:00,
2014-02-03 13:10:00,23.8,20.0,30.29,NNE,17,2.0,-999.0,86,-99.99,,,0.00,174,weatherlink.com 1.10,2014-02-03 18:10:00,
2014-02-03 13:25:00,23.6,20.0,30.29,NNE,29,1.0,-999.0,86,-99.99,,,0.00,214,weatherlink.com 1.10,2014-02-03 18:25:00,
2014-02-03 13:40:00,23.6,20.0,30.28,NE,44,5.0,-999.0,86,-99.99,,,0.00,77,weatherlink.com 1.10,2014-02-03 18:40:00,
2014-02-03 13:55:00,23.3,20.0,30.28,NE,46,8.0,-999.0,87,-99.99,,,0.00,162,weatherlink.com 1.10,2014-02-03 18:55:00,
2014-02-03 14:10:00,23.2,20.0,30.28,ENE,63,8.0,-999.0,86,-99.99,,,0.00,171,weatherlink.com 1.10,2014-02-03 19:10:00,
2014-02-03 14:25:00,23.4,20.0,30.29,ENE,58,0.0,-999.0,86,-99.99,,,0.00,171,weatherlink.com 1.10,2014-02-03 19:25:00,
2014-02-03 14:40:00,23.6,20.0,30.29,ENE,61,7.0,-999.0,86,-99.99,,,0.00,193,weatherlink.com 1.10,2014-02-03 19:40:00,
2014-02-03 14:55:00,23.8,20.0,30.30,ENE,59,2.0,-999.0,85,-99.99,,,0.00,204,weatherlink.com 1.10,2014-02-03 19:55:00,
2014-02-03 15:10:00,24.0,20.0,30.29,ENE,61,4.0,-999.0,83,-99.99,,,0.00,209,weatherlink.com 1.10,2014-02-03 20:10:00,
2014-02-03 15:25:00,23.5,19.0,30.30,ENE,69,4.0,-999.0,81,-99.99,,,0.00,165,weatherlink.com 1.10,2014-02-03 20:25:00,
2014-02-03 15:41:00,23.6,19.0,30.30,ENE,66,7.0,-999.0,81,-99.99,,,0.00,141,weatherlink.com 1.10,2014-02-03 20:41:00,
2014-02-03 15:56:00,23.5,19.0,30.30,ENE,67,1.0,-999.0,81,-99.99,,,0.00,95,weatherlink.com 1.10,2014-02-03 20:56:00,
2014-02-03 16:11:00,23.6,19.0,30.31,ENE,61,0.0,-999.0,81,-99.99,,,0.00,107,weatherlink.com 1.10,2014-02-03 21:11:00,
2014-02-03 16:26:00,23.6,19.0,30.32,NE,46,2.0,-999.0,81,-99.99,,,0.00,114,weatherlink.com 1.10,2014-02-03 21:26:00,
2014-02-03 16:41:00,23.3,18.0,30.32,NE,45,0.0,-999.0,81,-99.99,,,0.00,33,weatherlink.com 1.10,2014-02-03 21:41:00,
2014-02-03 16:56:00,23.1,18.0,30.33,NE,45,2.0,-999.0,80,-99.99,,,0.00,26,weatherlink.com 1.10,2014-02-03 21:56:00,
2014-02-03 17:11:00,22.9,17.0,30.34,NE,45,0.0,-999.0,79,-99.99,,,0.00,18,weatherlink.com 1.10,2014-02-03 22:11:00,
2014-02-03 17:26:00,22.8,18.0,30.33,NE,45,2.0,-999.0,80,-99.99,,,0.00,11,weatherlink.com 1.10,2014-02-03 22:26:00,
2014-02-03 17:41:00,22.6,17.0,30.34,NE,45,2.0,-999.0,80,-99.99,,,0.00,0,weatherlink.com 1.10,2014-02-03 22:41:00,
2014-02-03 17:56:00,22.5,17.0,30.35,NE,45,0.0,-999.0,79,-99.99,,,0.00,0,weatherlink.com 1.10,2014-02-03 22:56:00,
2014-02-03 18:11:00,22.2,17.0,30.36,NE,45,0.0,-999.0,79,-99.99,,,0.00,0,weatherlink.com 1.10,2014-02-03 23:11:00,
2014-02-03 18:26:00,22.0,17.0,30.36,NE,45,0.0,-999.0,80,-99.99,,,0.00,0,weatherlink.com 1.10,2014-02-03 23:26:00,
2014-02-03 18:41:00,22.0,17.0,30.36,NE,45,0.0,-999.0,80,-99.99,,,0.00,0,weatherlink.com 1.10,2014-02-03 23:41:00,
2014-02-03 18:57:00,22.0,17.0,30.35,NE,45,0.0,-999.0,81,-99.99,,,0.00,0,weatherlink.com 1.10,2014-02-03 23:57:00,
2014-02-03 19:12:00,22.0,17.0,30.36,NE,45,1.0,-999.0,81,-99.99,,,0.00,0,weatherlink.com 1.10,2014-02-04 00:12:00,
2014-02-03 19:27:00,22.2,17.0,30.36,NE,45,0.0,-999.0,81,-99.99,,,0.00,0,weatherlink.com 1.10,2014-02-04 00:27:00,
2014-02-03 19:42:00,22.1,17.0,30.36,NE,45,0.0,-999.0,82,-99.99,,,0.00,0,weatherlink.com 1.10,2014-02-04 00:42:00,
2014-02-03 19:57:00,22.0,17.0,30.36,NE,45,0.0,-999.0,82,-99.99,,,0.00,0,weatherlink.com 1.10,2014-02-04 00:57:00,
2014-02-03 20:12:00,21.8,17.0,30.36,NE,44,1.0,-999.0,82,-99.99,,,0.00,0,weatherlink.com 1.10,2014-02-04 01:12:00,
2014-02-03 20:27:00,21.7,17.0,30.37,NE,43,5.0,-999.0,82,-99.99,,,0.00,0,weatherlink.com 1.10,2014-02-04 01:27:00,
2014-02-03 20:42:00,21.6,17.0,30.37,NE,39,3.0,-999.0,82,-99.99,,,0.00,0,weatherlink.com 1.10,2014-02-04 01:42:00,
2014-02-03 20:57:00,21.4,17.0,30.37,NE,39,4.0,-999.0,82,-99.99,,,0.00,0,weatherlink.com 1.10,2014-02-04 01:57:00,
2014-02-03 21:12:00,21.3,16.0,30.37,NE,39,1.0,-999.0,81,-99.99,,,0.00,0,weatherlink.com 1.10,2014-02-04 02:12:00,
2014-02-03 21:29:00,21.3,16.0,30.37,NE,39,1.0,-999.0,81,-99.99,,,0.00,0,weatherlink.com 1.10,2014-02-04 02:29:00,
2014-02-03 21:48:00,21.1,16.0,30.38,NE,39,0.0,-999.0,82,-99.99,,,0.00,0,weatherlink.com 1.10,2014-02-04 02:48:00,
2014-02-03 21:58:00,21.1,16.0,30.39,NE,40,2.0,-999.0,82,-99.99,,,0.00,0,weatherlink.com 1.10,2014-02-04 02:58:00,
2014-02-03 22:13:00,21.2,17.0,30.39,NE,38,2.0,-999.0,82,-99.99,,,0.00,0,weatherlink.com 1.10,2014-02-04 03:13:00,
2014-02-03 22:28:00,21.1,16.0,30.39,NE,38,0.0,-999.0,81,-99.99,,,0.00,0,weatherlink.com 1.10,2014-02-04 03:28:00,
2014-02-03 22:43:00,21.1,16.0,30.39,NE,38,0.0,-999.0,80,-99.99,,,0.00,0,weatherlink.com 1.10,2014-02-04 03:43:00,
2014-02-03 22:58:00,21.0,15.0,30.39,NE,38,1.0,-999.0,79,-99.99,,,0.00,0,weatherlink.com 1.10,2014-02-04 03:58:00,
2014-02-03 23:13:00,21.0,15.0,30.39,NE,38,0.0,-999.0,79,-99.99,,,0.00,0,weatherlink.com 1.10,2014-02-04 04:13:00,
2014-02-03 23:28:00,20.9,15.0,30.39,NE,38,1.0,-999.0,79,-99.99,,,0.00,0,weatherlink.com 1.10,2014-02-04 04:28:00,
2014-02-03 23:43:00,21.0,15.0,30.40,NE,38,4.0,-999.0,79,-99.99,,,0.00,0,weatherlink.com 1.10,2014-02-04 04:43:00,
2014-02-03 23:58:00,21.2,16.0,30.40,NE,38,0.0,-999.0,80,-99.99,,,0.00,0,weatherlink.com 1.10,2014-02-04 04:58:00,